Regional Weather Roundup
Issued by NWS

Home | Current Version | Previous Version | Text Only | Print | Product List | Glossary On
Versions: 1 2 3 4 5 6 7 8 9 10 11 12 13 14 15 16 17 18 19 20 21 22 23 24 25 26 27 28 29 30 31 32 33 34 35 36 37 38 39 40 41 42 43 44 45 46 47 48 49 50
000
ASUS44 KMEG 261710
RWRTN
TENNESSEE HOURLY STATE WEATHER ROUNDUP
NATIONAL WEATHER SERVICE MEMPHIS TN
1200 PM CDT MON JUN 26 2017

TNZ002-004-019-021-049-052-054-088>092-261800-
WEST TENNESSEE

CITY           SKY/WX    TMP DP  RH WIND       PRES   REMARKS
MEMPHIS INTL   MOSUNNY   82  63  52 N8        30.20F
NWS MEMPHIS      N/A     79 N/A N/A MISG        N/A
JACKSON        PTSUNNY   76  57  51 E3        30.21F
SOMERVILLE     SUNNY     77  64  65 VRB7      30.20F
COVINGTON      SUNNY     75  57  53 E8        30.20F
UNION CITY     MOSUNNY   73  54  49 CALM      30.20F
BOLIVAR        MOSUNNY   75  61  60 CALM      30.20F
PARIS          SUNNY     73  50  43 CALM      30.20F
HUNTINGDON     CLOUDY    72  55  56 E3        30.20F
LEXINGTON      SUNNY     73  55  53 VRB6      30.21F
SELMER         MOSUNNY   73  63  68 NE7       30.21S
SAVANNAH       SUNNY     72  63  73 CALM      30.20F
$$

TNZ008-025-027-028-033-062-065-066-261800-
NORTH MIDDLE TENNESSEE

CITY           SKY/WX    TMP DP  RH WIND       PRES   REMARKS
NASHVILLE      PTSUNNY   77  50  38 CALM      30.21F
PORTLAND       SUNNY     75  52  43 CALM      30.19F
CLARKSVILLE    MOSUNNY   76  49  38 CALM      30.20F
SMYRNA         CLOUDY    74  55  51 N6        30.21F
COOKEVILLE     SUNNY     72  61  68 CALM      30.20F
GALLATIN       MOSUNNY   77  52  41 CALM      30.22F
CROSSVILLE     CLOUDY    69  55  60 W5        30.23S
$$

TNZ061-075-076-078-094-096-097-261800-
SOUTH MIDDLE TENNESSEE

CITY           SKY/WX    TMP DP  RH WIND       PRES   REMARKS
FAYETTEVILLE   SUNNY     79  57  47 NW7       30.19F
TULLAHOMA      SUNNY     73  57  56 NW5       30.22S
WINCHESTER     SUNNY     79  55  44 W7        30.20F
MCMINNVILLE    SUNNY     72  59  64 NW6       30.21S
COLUMBIA       SUNNY     70  61  73 CALM      30.20S
SHELBYVILLE    SUNNY     72  61  68 N6        30.21S
$$

TNZ017-018-042-046-047-261800-
NORTHEAST TENNESSEE

CITY           SKY/WX    TMP DP  RH WIND       PRES   REMARKS
TRI CITIES     MOSUNNY   77  50  38 W13G20    30.18F
ELIZABETHTON   MOSUNNY   75  52  43 SW6       30.19F
$$

TNZ012-013-036-069-073-074-261800-
CENTRAL EAST TENNESSEE

CITY           SKY/WX    TMP DP  RH WIND       PRES   REMARKS
KNOXVILLE      CLOUDY    75  51  43 SW5       30.17F
OAK RIDGE      PTSUNNY   76  55  48 VRB5      30.19F
DOWNTOWN KNOXV SUNNY     77  57  50 VRB5      30.17F
GATLINBURG     SUNNY     81  48  32 W8        30.18F
MORRISTOWN     SUNNY     77  54  44 W9        30.18F
JACKSBORO      SUNNY     77  55  47 VRB5      30.21F
$$

TNZ083-085-099-261800-
SOUTHEAST TENNESSEE

CITY           SKY/WX    TMP DP  RH WIND       PRES   REMARKS
CHATTANOOGA    MOSUNNY   83  54  36 VRB6      30.18F
$$

SKY/WX REPORTED AS FAIR MEANS FEW OR NO CLOUDS BELOW
12 THOUSAND FEET.





USA.gov is the U.S. government's official web portal to all federal, state and local government web resources and services.